Weather History for ENRY - March, 2013

Change the Weather History Date:

Wednesday, March 20, 2013

  Actual Average Record
Temperature  
Mean Temperature 22 °F -  
Max Temperature 27 °F 44 °F 57 °F (2012)
Min Temperature 17 °F 32 °F 12 °F (2001)
Degree Days  
Heating Degree Days 43    
Moisture  
Dew Point 13 °F    
Average Humidity 68    
Maximum Humidity 86    
Minimum Humidity 55    
Precipitation  
Precipitation 0.00 in - - ()
Sea Level Pressure  
Sea Level Pressure 30.10 in    
Wind  
Wind Speed 13 mph ()    
Max Wind Speed 21 mph    
Max Gust Speed 23 mph    
Visibility 6.1 miles    
Events Rain , Snow    
Averages and records for this station are not official NWS values.
T = Trace of Precipitation, MM = Missing Value Source: Averaged Metar Reports

Daily Weather History Graph

Daily Weather History Graph

Search for Another Location

Airport or City:

Trip Planner

Search our weather history database for the weather conditions in past years. The results will help you decide how hot, cold, wet, or windy it might be!

Date:

Astronomy

Mar. 20, 2013 Rise Set
Actual Time 6:18 AM CET 6:31 PM CET
Civil Twilight 5:37 AM CET 7:12 PM CET
Nautical Twilight 4:48 AM CET 8:01 PM CET
Astronomical Twilight 3:56 AM CET 8:54 PM CET
Moon 10:30 AM CET (3/20) 3:08 AM CET (3/20)
Length of Visible Light 13h 34m
Length of Day
12h 13m
First Quarter, 57% of the Moon is Illuminated
Mar 20
First Quarter
Mar 27
Full
Apr 3
Last Quarter
Apr 10
New
Apr 18
First Quarter

Hourly Weather History & Observations

Time (CET) Temp. Windchill Dew Point Humidity Pressure Visibility Wind Dir Wind Speed Gust Speed Precip Events Conditions
12:20 AM 21.2 °F 8.9 °F 12.2 °F 68% 30.01 in 6.2 mi NNE 12.7 mph - N/A   Overcast
12:50 AM 21.2 °F 8.9 °F 12.2 °F 68% 30.04 in 6.2 mi NNE 12.7 mph - N/A   Overcast
1:00 AM 21 °F - 13 °F 59% 30.05 in 31 mi NNE 13.4 mph - -   Clear
1:20 AM 21.2 °F 8.3 °F 12.2 °F 68% 30.04 in 6.2 mi NNE 13.8 mph - N/A   Mostly Cloudy
1:50 AM 19.4 °F 7.2 °F 12.2 °F 74% 30.04 in 6.2 mi NNE 11.5 mph - N/A   Mostly Cloudy
2:20 AM 19.4 °F 6.6 °F 12.2 °F 74% 30.04 in 6.2 mi NNE 12.7 mph - N/A Snow Snow Grains
2:50 AM 19.4 °F 6.0 °F 10.4 °F 68% 30.04 in 6.2 mi North 13.8 mph - N/A   Mostly Cloudy
3:20 AM 19.4 °F 6.0 °F 10.4 °F 68% 30.04 in 6.2 mi NNE 13.8 mph - N/A   Overcast
3:50 AM 19.4 °F 6.0 °F 10.4 °F 68% 30.04 in 6.2 mi North 13.8 mph - N/A   Overcast
4:20 AM 19.4 °F 5.0 °F 10.4 °F 68% 30.04 in 6.2 mi NNE 16.1 mph - N/A   Overcast
4:50 AM 19.4 °F 5.0 °F 10.4 °F 68% 30.04 in 6.2 mi NNE 16.1 mph - N/A   Overcast
5:20 AM 19.4 °F 5.5 °F 10.4 °F 68% 30.04 in 6.2 mi NNE 15.0 mph - N/A   Overcast
5:50 AM 19.4 °F 4.5 °F 10.4 °F 68% 30.04 in 6.2 mi NNE 17.3 mph - N/A   Overcast
6:20 AM 19.4 °F 5.0 °F 10.4 °F 68% 30.06 in 6.2 mi NNE 16.1 mph - N/A   Mostly Cloudy
6:50 AM 17.6 °F 2.7 °F 8.6 °F 68% 30.06 in 6.2 mi NNE 16.1 mph - N/A   Scattered Clouds
7:00 AM 18 °F - 10 °F 61% 30.09 in 22 mi NNE 15.7 mph - -   Partly Cloudy
7:20 AM 17.6 °F 3.2 °F 8.6 °F 68% 30.06 in 6.2 mi NNE 15.0 mph - N/A   Mostly Cloudy
7:50 AM 19.4 °F 4.5 °F 8.6 °F 63% 30.06 in 6.2 mi North 17.3 mph - N/A   Mostly Cloudy
8:20 AM 19.4 °F 5.5 °F 8.6 °F 63% 30.06 in 6.2 mi North 15.0 mph - N/A   Mostly Cloudy
8:50 AM 19.4 °F 5.0 °F 8.6 °F 63% 30.06 in 6.2 mi North 16.1 mph - N/A   Mostly Cloudy
9:20 AM 19.4 °F 5.0 °F 8.6 °F 63% 30.06 in 6.2 mi NNE 16.1 mph - N/A   Mostly Cloudy
9:50 AM 21.2 °F 8.3 °F 10.4 °F 63% 30.06 in 6.2 mi North 13.8 mph - N/A Snow Light Snow
10:20 AM 21.2 °F 7.8 °F 10.4 °F 63% 30.06 in 6.2 mi North 15.0 mph - N/A   Mostly Cloudy
10:50 AM 21.2 °F 6.8 °F 10.4 °F 63% 30.06 in 6.2 mi NNE 17.3 mph - N/A   Mostly Cloudy
11:20 AM 23.0 °F 9.2 °F 12.2 °F 63% 30.09 in 6.2 mi NNE 17.3 mph - N/A Snow Light Snow
11:50 AM 21.2 °F 7.3 °F 14.0 °F 74% 30.09 in 3.7 mi NNE 16.1 mph - N/A Snow Light Snow
12:20 PM 23.0 °F 9.6 °F 14.0 °F 68% 30.09 in 3.7 mi NNE 16.1 mph - N/A Snow Light Snow
12:50 PM 23.0 °F 9.6 °F 15.8 °F 74% 30.09 in 4.3 mi NNE 16.1 mph - N/A Snow Light Snow
1:00 PM 24 °F - 16 °F 61% 30.12 in 6 mi NNE 15.7 mph - - Snow Light Snow
1:20 PM 24.8 °F 11.5 °F 15.8 °F 69% 30.09 in 6.2 mi NNE 17.3 mph - N/A Snow Light Snow
1:50 PM 24.8 °F 12.4 °F 14.0 °F 64% 30.09 in 6.2 mi NNE 15.0 mph - N/A   Mostly Cloudy
2:20 PM 24.8 °F 12.9 °F 15.8 °F 69% 30.09 in 6.2 mi NNE 13.8 mph - N/A Snow Light Snow
2:50 PM 26.6 °F 14.7 °F 17.6 °F 69% 30.09 in 6.2 mi NNE 15.0 mph - N/A Snow Light Snow
3:20 PM 26.6 °F 14.7 °F 15.8 °F 64% 30.09 in 6.2 mi NNE 15.0 mph - N/A Snow Light Snow
3:50 PM 26.6 °F 15.2 °F 14.0 °F 59% 30.09 in 6.2 mi NNE 13.8 mph - N/A   Mostly Cloudy
4:20 PM 26.6 °F 12.7 °F 12.2 °F 55% 30.09 in 6.2 mi ENE 20.7 mph - N/A   Mostly Cloudy
4:50 PM 26.6 °F 14.3 °F 14.0 °F 59% 30.12 in 6.2 mi NNE 16.1 mph - N/A Snow Light Snow
5:20 PM 26.6 °F 14.7 °F 14.0 °F 59% 30.12 in 6.2 mi NE 15.0 mph 23.0 mph N/A Snow Light Snow
5:50 PM 26.6 °F 15.2 °F 14.0 °F 59% 30.12 in 6.2 mi NE 13.8 mph - N/A   Mostly Cloudy
6:20 PM 24.8 °F 12.4 °F 15.8 °F 69% 30.15 in 6.2 mi NE 15.0 mph - N/A   Mostly Cloudy
6:50 PM 24.8 °F 12.4 °F 15.8 °F 69% 30.15 in 6.2 mi NE 15.0 mph - N/A   Mostly Cloudy
7:00 PM 25 °F - 17 °F 60% 30.19 in 11 mi NE 15.7 mph - - Snow Light Snow Showers
7:20 PM 24.8 °F 11.5 °F 15.8 °F 69% 30.18 in 6.2 mi NE 17.3 mph - N/A Snow Light Snow
7:50 PM 24.8 °F 12.4 °F 15.8 °F 69% 30.18 in 6.2 mi NE 15.0 mph - N/A Snow Light Snow
8:20 PM 24.8 °F 12.9 °F 15.8 °F 69% 30.21 in 6.2 mi NE 13.8 mph - N/A Snow Light Snow
8:50 PM 24.8 °F 12.9 °F 15.8 °F 69% 30.21 in 6.2 mi NE 13.8 mph - N/A Snow Light Snow
9:20 PM 23.0 °F 10.6 °F 15.8 °F 74% 30.21 in 6.2 mi NNE 13.8 mph - N/A Snow Light Snow
9:50 PM 23.0 °F 11.1 °F 17.6 °F 80% 30.24 in 6.2 mi NNE 12.7 mph - N/A Snow Light Snow
10:20 PM 23.0 °F 11.1 °F 19.4 °F 86% 30.24 in - NNE 12.7 mph - N/A Snow Light Snow
10:50 PM 23.0 °F 11.7 °F 19.4 °F 86% 30.24 in 3.7 mi North 11.5 mph - N/A Snow Light Snow
11:20 PM 23.0 °F 13.9 °F 19.4 °F 86% 30.24 in 6.2 mi North 8.1 mph - N/A Rain Light Freezing Rain
11:50 PM 23.0 °F 12.4 °F 17.6 °F 80% 30.27 in 6.2 mi North 10.4 mph - N/A Snow Snow Grains